Location: Babice
(50.3480°N, 22.9363°E)
Time: 12:47:46
(UTC+00:00)

SeaSat 1 - Pass Details

Date: 14 July 2020
Orbit: 744 x 747 km, 108.0° (Epoch: 07 August)

Event Time Altitude Azimuth Distance (km) Brightness Sun altitude
Rises 00:33:59 0° 31° (NNE) 3,203 7.8 -13.3°
Reaches altitude 10° 00:36:17 10° 34° (NE) 2,275 6.4 -13.1°
Maximum altitude 00:41:13 70° 118° (ESE) 798 2.6 -12.7°
Enters shadow 00:45:00 17° 200° (SSW) 1,820 3.8 -12.4°
